Tracking 19246 objects as of 21-Sep-2018
HD Live streaming from Space Station
objects crossing your sky now

FENGYUN 1C DEB

Track FENGYUN 1C DEB now!
10-day predictions


NORAD ID: 31332
Int'l Code: 1999-025BQL
Perigee: 844.7 km
Apogee: 921.1 km
Inclination: 98.9 °
Period: 102.5 minutes
Semi major axis: 7253 km
RCS: 0.0119 m2 (small)
Launch date: May 10, 1999
Source: People's Republic of China (PRC)
Launch site: Taiyaun Space Center, China (TSC)

Note: This is SATELLITE DEBRIS
aabbcc
Your satellite tracking list
Your tracking list is empty




NASA's NSSDC Master Catalog

Two Line Element Set (TLE):
1 31332U 99025BQL 18262.06263264 +.00000549 +00000-0 +36272-3 0  9996
2 31332 098.9270 304.0558 0052614 254.1296 169.2688 14.05228448588202
Source of the keplerian elements: AFSPC